Weather History for KMDT - May, 2013

Change the Weather History Date:

Monday, May 13, 2013

  Actual Average Record
Temperature  
Mean Temperature 48 °F 61 °F  
Max Temperature 55 °F 71 °F 90 °F (1944)
Min Temperature 41 °F 51 °F 36 °F (1907)
Degree Days  
Heating Degree Days 17 5  
Month to date heating degree days 91 86  
Since 1 July heating degree days 5056 5189  
Cooling Degree Days 0 1  
Month to date cooling degree days 0 13  
Year to date cooling degree days 7 20  
Moisture  
Dew Point 27 °F    
Average Humidity 44    
Maximum Humidity 58    
Minimum Humidity 29    
Precipitation  
Precipitation 0.00 in 0.11 in 1.82 in (1897)
Month to date precipitation 1.76 1.56  
Year to date precipitation 11.35 13.30  
Snow  
Snow 0.00 in 0.00 in 0.00 in (2002)
Month to date snowfall 0.0 0.0  
Since 1 July snowfall 17.0 30.6  
Snow Depth 0.00 in    
Sea Level Pressure  
Sea Level Pressure 30.07 in    
Wind  
Wind Speed 11 mph (NW)    
Max Wind Speed 21 mph    
Max Gust Speed 29 mph    
Visibility 10 miles    
Events      
T = Trace of Precipitation, MM = Missing Value Source: NWS Daily Summary

Daily Weather History Graph

Daily Weather History Graph

Search for Another Location

Airport or City:

Trip Planner

Search our weather history database for the weather conditions in past years. The results will help you decide how hot, cold, wet, or windy it might be!

Date:

Astronomy

May. 13, 2013 Rise Set
Actual Time 5:53 AM EDT 8:14 PM EDT
Civil Twilight 5:22 AM EDT 8:45 PM EDT
Nautical Twilight 4:44 AM EDT 9:22 PM EDT
Astronomical Twilight 4:02 AM EDT 10:04 PM EDT
Moon 8:37 AM EDT (5/13) 11:22 PM EDT (5/13)
Length of Visible Light 15h 22m
Length of Day
14h 21m
Waxing Crescent, 12% of the Moon is Illuminated
May 13
Waxing Crescent
May 18
First Quarter
May 25
Full
May 31
Last Quarter
Jun 8
New

Hourly Weather History & Observations

Time (EDT) Temp. Windchill Dew Point Humidity Pressure Visibility Wind Dir Wind Speed Gust Speed Precip Events Conditions
12:56 AM 48.9 °F - 30.0 °F 48% 30.01 in 10.0 mi WNW 11.5 mph - N/A   Clear
1:56 AM 48.9 °F - 30.0 °F 48% 30.01 in 10.0 mi West 9.2 mph - N/A   Clear
2:56 AM 46.9 °F - 30.0 °F 52% 30.00 in 10.0 mi WNW 8.1 mph - N/A   Clear
3:56 AM 45.0 °F 41.2 °F 30.0 °F 56% 30.01 in 10.0 mi NNW 6.9 mph - N/A   Scattered Clouds
4:56 AM 45.0 °F 40.6 °F 30.9 °F 58% 30.03 in 10.0 mi NW 8.1 mph - N/A   Mostly Cloudy
5:56 AM 44.1 °F 39.5 °F 30.0 °F 58% 30.03 in 10.0 mi NNW 8.1 mph - N/A   Mostly Cloudy
6:56 AM 44.1 °F 39.5 °F 28.0 °F 53% 30.06 in 10.0 mi NNW 8.1 mph - N/A   Overcast
7:56 AM 45.0 °F 39.7 °F 27.0 °F 49% 30.08 in 10.0 mi NNW 10.4 mph - N/A   Mostly Cloudy
8:56 AM 48.0 °F - 28.0 °F 46% 30.09 in 10.0 mi NW 10.4 mph - N/A   Partly Cloudy
9:56 AM 48.0 °F - 28.0 °F 46% 30.10 in 10.0 mi WNW 9.2 mph 21.9 mph N/A   Scattered Clouds
10:56 AM 48.9 °F - 28.0 °F 44% 30.10 in 10.0 mi WNW 12.7 mph 18.4 mph N/A   Overcast
11:56 AM 50.0 °F - 30.0 °F 46% 30.11 in 10.0 mi WNW 15.0 mph 23.0 mph N/A   Mostly Cloudy
12:56 PM 50.0 °F - 28.0 °F 43% 30.10 in 10.0 mi WNW 13.8 mph 24.2 mph N/A   Scattered Clouds
1:56 PM 52.0 °F - 26.1 °F 37% 30.08 in 10.0 mi WNW 15.0 mph 24.2 mph N/A   Scattered Clouds
2:56 PM 52.0 °F - 25.0 °F 35% 30.07 in 10.0 mi WNW 17.3 mph 21.9 mph N/A   Mostly Cloudy
4:56 PM 53.1 °F - 24.1 °F 32% 30.06 in 10.0 mi NNW 13.8 mph 24.2 mph N/A   Mostly Cloudy
5:56 PM 53.1 °F - 26.1 °F 35% 30.06 in 10.0 mi NW 17.3 mph 28.8 mph N/A   Mostly Cloudy
6:56 PM 51.1 °F - 24.1 °F 35% 30.06 in 10.0 mi NNW 15.0 mph 19.6 mph N/A   Mostly Cloudy
7:56 PM 50.0 °F - 23.0 °F 35% 30.08 in 10.0 mi NNW 9.2 mph 18.4 mph N/A   Partly Cloudy
8:56 PM 48.0 °F - 23.0 °F 37% 30.10 in 10.0 mi NNW 8.1 mph - N/A   Partly Cloudy
9:56 PM 46.9 °F - 24.1 °F 41% 30.13 in 10.0 mi NNW 6.9 mph - N/A   Partly Cloudy
10:56 PM 45.0 °F 43.5 °F 27.0 °F 49% 30.15 in 10.0 mi NNW 3.5 mph - N/A   Clear
11:56 PM 43.0 °F 40.3 °F 28.0 °F 56% 30.17 in 10.0 mi NNW 4.6 mph - N/A   Clear